Regional Weather Roundup
Issued by NWS

Home | Current Version | Previous Version | Text Only | Print | Product List | Glossary Off
Versions: 1 2 3 4 5 6 7 8 9 10 11 12 13 14 15 16 17 18 19 20 21 22 23 24 25 26 27 28 29 30 31 32 33 34 35 36 37 38 39 40 41 42 43 44 45 46 47 48 49 50

000
ASUS43 KDTX 171201
RWRMI
MICHIGAN HOURLY REGIONAL WEATHER ROUNDUP
NATIONAL WEATHER SERVICE DETROIT/PONTIAC MI
700 AM EST TUE JAN 17 2017

NOTE: "FAIR" INDICATES FEW OR NO CLOUDS BELOW 12,000 FEET WITH NO
SIGNIFICANT WEATHER AND/OR OBSTRUCTION TO VISIBILITY.

MIZ047>049-052>055-059>063-066>070-074>076-081>083-171300-
SOUTHEAST LOWER MICHIGAN

CITY           SKY/WX    TMP DP  RH WIND       PRES   REMARKS
ADRIAN         FOG       34  34 100 E7        29.81F VSB 1/4 WCI  28
6HR MIN TEMP:  32; 6HR MAX TEMP:  34; 6HR PCP:  0.20;

ALMA           LGT SNOW  33  32  97 NE5       29.83F WCI  28
ANN ARBOR      LGT RAIN  33  33 100 NE5       29.82F VSB 1/2 WCI  29
BAD AXE        LGT SNOW  33  32  96 E10G17    29.88F WCI  25
6HR MIN TEMP:  31; 6HR MAX TEMP:  33;

CARO           LGT SNOW  33  32  98 E10G18    29.84F WCI  25
DETROIT        FOG       36  35  96 E5        29.84F VSB 1/4 WCI  32
6HR MIN TEMP:  33; 6HR MAX TEMP:  36; 6HR PCP:  0.30;

FLINT          CLOUDY    35  34  96 SE9       29.82F WCI  28
6HR MIN TEMP:  33; 6HR MAX TEMP:  35; 6HR PCP:  0.23;

GROSSE ILE     FOG       36  35  99 CALM      29.82F VSB 1/4
6HR MIN TEMP:  32; 6HR MAX TEMP:  37; 6HR PCP:  0.20;

HILLSDALE      LGT RAIN  36  36 100 SE8       29.77F VSB 1/2 WCI  29
HOWELL         LGT RAIN  34  33  96 SE10      29.80F VSB 3/4 WCI  26

CITY           SKY/WX    TMP DP  RH WIND       PRES   REMARKS
JACKSON        LGT RAIN  35  34  96 VRB3      29.80S
6HR MIN TEMP:  33; 6HR MAX TEMP:  35; 6HR PCP:  0.28;

LAMBERTVILLE   FOG       36  35  94 CALM      29.81F VSB 1/4
6HR MIN TEMP:  35; 6HR MAX TEMP:  36;

LANSING        RAIN      35  33  92 SE10      29.81S FOG     WCI  27
6HR MIN TEMP:  34; 6HR MAX TEMP:  35; 6HR PCP:  0.28;

LAPEER         NOT AVBL
MASON          LGT SNOW  34  34 100 SE6       29.81F WCI  29
MONROE         FOG       37  37 100 E3        29.82F VSB 1/2
MT. CLEMENS    LGT RAIN  32  32 100 E8        29.84F WCI  25
PONTIAC        LGT RAIN  33  31  92 E9        29.82F VSB 1   WCI  25
6HR MIN TEMP:  31; 6HR MAX TEMP:  33; 6HR PCP:  0.30;

PORT HOPE        N/A     34  33  96 E15       29.90F WCI  24
6HR MIN TEMP:  32; 6HR MAX TEMP:  34; 6HR PCP:  0.22;

PORT HURON     MIX PCPN  34  34 100 E5        29.87F WCI  30
TRI CITIES     LGT RAIN  33  33 100 NE9       29.85F FOG     WCI  25
6HR MIN TEMP:  32; 6HR MAX TEMP:  33; 6HR PCP:  0.32;

MIDLAND        CLOUDY    33  32  95 NE9       29.84F WCI  26
6HR MIN TEMP:  33; 6HR MAX TEMP:  33; 6HR PCP:  0.02;

TROY           MIX PCPN  33  32  95 E5        29.86F WCI  29
SAGINAW HB     LGT SNOW  34  32  93 NE6       29.84F WCI  29
$$
MIZ043>046-050>051-056>058-064>065-071>073-077>080-171300-
SOUTHWEST LOWER MICHIGAN

CITY           SKY/WX    TMP DP  RH WIND       PRES   REMARKS
BATTLE CREEK   LGT RAIN  41  40  96 SE10      29.75F
6HR MIN TEMP:  36; 6HR MAX TEMP:  41; 6HR PCP:  0.43;

BENTON HARBOR  CLOUDY    47  45  93 S6        29.72R FOG
6HR MIN TEMP:  41; 6HR MAX TEMP:  47; 6HR PCP:  0.46;

BIG RAPIDS     LGT SNOW  32  31  96 E7        29.81F WCI  26
6HR MIN TEMP:  32; 6HR MAX TEMP:  33; 6HR PCP:  0.35;

COLDWATER      LGT RAIN  40  40 100 E5        29.76F
6HR MIN TEMP:  37; 6HR MAX TEMP:  41;

FREMONT        LGT RAIN  33  33 100 E13G18    29.77F WCI  24
HOLLAND        CLOUDY    37  35  92 E8        29.74F WCI  31
6HR MIN TEMP:  35; 6HR MAX TEMP:  37; 6HR PCP:  0.35;

GRAND RAPIDS   LGT RAIN  34  34 100 NE12      29.76F FOG     WCI  25
6HR MIN TEMP:  33; 6HR MAX TEMP:  35; 6HR PCP:  0.47;

IONIA          LGT SNOW  32  32  99 NE10      29.77F WCI  24
6HR MIN TEMP:  32; 6HR MAX TEMP:  33; 6HR PCP:  0.18;

KALAMAZOO      LGT RAIN  42  39  89 SE7       29.75F
6HR MIN TEMP:  37; 6HR MAX TEMP:  42; 6HR PCP:  0.40;

LUDINGTON      MIX PCPN  34  34 100 E7        29.79F WCI  28
6HR MIN TEMP:  34; 6HR MAX TEMP:  36; 6HR PCP:  0.13;

MARSHALL       RAIN      38  37  98 E5        29.77F WCI  34
6HR MIN TEMP:  36; 6HR MAX TEMP:  39; 6HR PCP:  0.34;

MOUNT PLEASANT LGT SNOW  32  32  99 E6        29.83F WCI  27
6HR MIN TEMP:  32; 6HR MAX TEMP:  33; 6HR PCP:  0.12;

MUSKEGON       LGT RAIN  36  34  92 E9        29.75F WCI  29
6HR MIN TEMP:  35; 6HR MAX TEMP:  36; 6HR PCP:  0.68;

SOUTH HAVEN    CLOUDY    43  43  99 SE5       29.72S
$$
MIZ016>042-171300-
NORTHERN LOWER MICHIGAN

CITY           SKY/WX    TMP DP  RH WIND       PRES   REMARKS
ALPENA         LGT RAIN  34  32  92 E7        29.96F FOG     WCI  28
6HR MIN TEMP:  19; 6HR MAX TEMP:  34; 6HR PCP:  0.14;

BEAVER ISLAND  LGT SNOW  32  30  93 E8        29.94F WCI  25
BELLAIRE       CLOUDY    35  34  94 CALM      29.87F
6HR MIN TEMP:  26; 6HR MAX TEMP:  36;

CADILLAC       MIX PCPN  33  32  96 E12G17    29.80F WCI  24
CHARLEVOIX     DRIZZLE   33  33  99 NE6       29.92S WCI  28
6HR MIN TEMP:  30; 6HR MAX TEMP:  34;

FRANKFORT      CLOUDY    36  34  95 E6        29.82F WCI  31
GAYLORD        LGT RAIN  35  31  85 E7        29.87F WCI  29
6HR MIN TEMP:  30; 6HR MAX TEMP:  35; 6HR PCP:  0.31;

GRAYLING       LGT SNOW  33  32  96 E14       29.87F WCI  24
6HR MIN TEMP:  31; 6HR MAX TEMP:  33;

HARBOR SPRINGS MIX PCPN  32  30  92 NE10G16   29.90F WCI  23
HOUGHTON LAKE  LGT RAIN  33  32  96 E14       29.86F FOG     WCI  23
6HR MIN TEMP:  32; 6HR MAX TEMP:  33; 6HR PCP:  0.30;

MANISTEE       LGT RAIN  36  34  92 E9        29.81S WCI  29
OSCODA         MIX PCPN  35  34  96 E9        29.92F WCI  28
6HR MIN TEMP:  32; 6HR MAX TEMP:  35; 6HR PCP:  0.05;

PELLSTON       FRZ RAIN  32  27  81 E9        29.94F WCI  24
6HR MIN TEMP:  19; 6HR MAX TEMP:  32; 6HR PCP:  0.01;

ROGERS CITY    LGT SNOW  33  31  93 E7        29.98F WCI  27
TRAVERSE CITY  DRIZZLE   36  34  92 NE6       29.84F WCI  31
6HR MIN TEMP:  34; 6HR MAX TEMP:  37; 6HR PCP:  0.13;

$$
MIZ007>008-015-171300-
EASTERN UPPER MICHIGAN

CITY           SKY/WX    TMP DP  RH WIND       PRES   REMARKS
KINROSS        CLOUDY    27  25  92 E10       29.98F WCI  17
6HR MIN TEMP:  24; 6HR MAX TEMP:  27;

MACKINAC ISLAN CLOUDY    33  33 100 E12G20    29.95F WCI  24
6HR MIN TEMP:  32; 6HR MAX TEMP:  34;

NEWBERRY       CLOUDY    24  24  97 NE8       29.96F WCI  16
6HR MIN TEMP:  20; 6HR MAX TEMP:  24;

S. S. MARIE    CLOUDY    27  22  81 E5        29.99F WCI  22
6HR MIN TEMP:  24; 6HR MAX TEMP:  27;

$$
MIZ004>006-011>014-085-171300-
CENTRAL UPPER MICHIGAN

CITY           SKY/WX    TMP DP  RH WIND       PRES   REMARKS
MANISTIQUE     LGT SNOW  29  28  96 NE6       29.95F WCI  23
6HR MIN TEMP:  20; 6HR MAX TEMP:  29; 6HR PCP:  0.01;

ESCANABA       FLURRIES  29  27  92 N9        29.92F WCI  20
6HR MIN TEMP:  21; 6HR MAX TEMP:  30; 6HR PCP:  0.06;

SAWYER-GWINN   MOCLDY    23  18  80 CALM      29.94F
$$
MIZ001>003-009>011-084-171300-
WESTERN UPPER MICHIGAN

CITY           SKY/WX    TMP DP  RH WIND       PRES   REMARKS
IRON MOUNTAIN  MIX PCPN  27  19  72 N7        29.90S WCI  19
6HR MIN TEMP:  19; 6HR MAX TEMP:  27; 6HR PCP:  0.02;

HOUGHTON       CLOUDY    31  27  85 E6        29.94S WCI  25
6HR MIN TEMP:  30; 6HR MAX TEMP:  31;

COPPER HARBOR    N/A     28  27  96 CALM      29.97F
6HR MIN TEMP:  25; 6HR MAX TEMP:  30;

IRONWOOD       CLOUDY    22  20  92 CALM      29.93S
6HR MIN TEMP:  22; 6HR MAX TEMP:  26;

$$

ABBREVIATIONS USED IN REMARKS
   TC - TEMPERATURE IN CELSIUS
  WCI - WIND CHILL INDEX
   HX - HEAT INDEX
  VSB - VISIBILITY





USA.gov is the U.S. government's official web portal to all federal, state and local government web resources and services.